Regional Weather Roundup
Issued by NWS Charleston, SC

Current Version | Previous Version | Graphics & Text | Print | Product List | Glossary On
Versions: 1 2 3 4 5 6 7 8 9 10 11 12 13 14 15 16 17 18 19 20 21 22 23 24 25 26 27 28 29 30 31 32 33 34 35 36 37 38 39 40 41 42 43 44 45 46 47 48 49 50
184
ASUS42 KCHS 010528
RWRCHS

REGIONAL WEATHER ROUNDUP
NATIONAL WEATHER SERVICE CHARLESTON SC
100 AM EDT WED JUN 01 2016

NOTE: "FAIR" INDICATES FEW OR NO CLOUDS BELOW 12,000 FEET WITH NO
SIGNIFICANT WEATHER AND/OR OBSTRUCTIONS TO VISIBILITY.

NOT ALL STATIONS ARE QUALITY CONTROLLED. USE DATA WITH CAUTION...
ESPECIALLY DEWPOINT OBSERVATIONS.

SCZ027-030-031-034>040-042>050-010600-
...SOUTHEAST SOUTH CAROLINA...

CITY           SKY/WX    TMP DP  RH WIND       PRES   REMARKS
N CHARLESTON   PTCLDY    74  71  91 CALM      29.95S
WATERFRONT PRK   N/A     74  73  96 CALM      29.93S
MOUNT PLEASANT FAIR      72  72 100 CALM      29.95S FOG
JOHNS ISLAND   FAIR      75  72  88 SW6       29.95S
PINOPOLIS        N/A     77  72  83 CALM      29.89R
MONCKS CORNER  FAIR      68  64  88 CALM      29.95S
SUMMERVILLE    MOCLDY    72  72 100 CALM      29.96F
BEAUFORT MCAS  PTCLDY    75  71  87 NW3       29.95S
BEAUFORT ARPT  FAIR      75  72  88 NW5       29.95R
HILTON HEAD IS CLEAR     73  72  94 CALM      29.95F
WALTERBORO     CLOUDY    75  75 100 E3        29.96F
ALLENDALE      MOCLDY    70  68  94 CALM      29.95R

...SOUTHERN MIDLANDS AND PEE DEE...

CITY           SKY/WX    TMP DP  RH WIND       PRES   REMARKS
GEORGETOWN     FAIR      70  68  94 NW3       29.95S
KINGSTREE      FAIR      68  66  94 CALM      29.95F
ORANGEBURG     CLOUDY    70  68  93 E3        29.96S
BARNWELL       FAIR      73  73 100 CALM      29.97R
AIKEN          FAIR      70  66  88 CALM      30.00S
MANNING        FAIR      68  66  94 CALM      29.96F
COLUMBIA       PTCLDY    73  67  81 CALM      29.95F
SUMTER         PTCLDY    71  68  89 SW1       29.95R
FLORENCE       CLEAR     72  69  90 NE3       29.96S
MYRTLE BEACH   PTCLDY    73  64  73 NW7       29.94S
N MYRTLE BEACH CLOUDY    74  71  91 N6        29.91F

$$

GAZ063-065-086>088-099>101-113>116-118-119-134>141-150-010600-
...SOUTHEAST GEORGIA...

CITY           SKY/WX    TMP DP  RH WIND       PRES   REMARKS
SAVANNAH ARPT  CLEAR     74  71  91 SW5       29.95S
HUNTER AAF     CLEAR     73  73 100 CALM      29.93R
FORT STEWART   CLEAR     72  69  92 CALM      29.93S
STATESBORO     CLEAR     73  72  95 CALM      29.96S
SYLVANIA       CLEAR     75  70  86 CALM      29.97S
CLAXTON        FAIR      71  70  98 CALM      29.96S

...CSRA...CENTRAL AND FAR SOUTHEAST GEORGIA...

CITY           SKY/WX    TMP DP  RH WIND       PRES   REMARKS
THOMSON        PTCLDY    72  71  96 CALM      30.01S
AUGUSTA-BUSH   CLEAR     72  69  90 CALM      29.94F
AUGUSTA-DANIEL CLEAR     78  66  66 CALM      29.97S
SWAINSBORO     FAIR      73  68  83 CALM      29.97S
VIDALIA        CLEAR     73  66  78 S5        29.96S
EASTMAN        FAIR      72  67  85 CALM      29.98S
HAZLEHURST     FAIR      74  68  79 CALM      29.95S
ALMA           CLEAR     70  67  90 CALM      29.96R
WAYCROSS       NOT AVBL
JESUP          FAIR      64  63  94 CALM      29.96S
BAXLEY         MOCLDY    72  70  94 CALM      29.96S
BRUNSWICK      FOG       73  72  94 CALM      29.96S VSB 1
SAINT SIMONS   PTCLDY    77  74  90 SE5       29.95S

$$

SCZ027-028-034-036>038-045-046-048>050-GAZ119-141-010600-
...LAKE AND SUPPLEMENTAL COASTAL OBSERVATIONS...

STATION/POSITION TIME  TEMP    WIND        PRES    WAVE   SWELL
                       AIR SEA DIR/SP/G            HT/PER HT/PER/DIR
                 (UTC) (F)     (DEG/KT/KT) (MB)    (FT/S) (FT/S/D)
WINYAH BAY       0400   72     310/  4     1013.0S
LAKE MURRAY      0400   75      CALM  /  2 1014.2S
ACE BASIN NERRS  0400   73        CALM     1014.0S
FORT PULASKI     0500   74 77  210/  3/  3 1014.4S
SAPELO ISLAND    0500   75        CALM     1014.0S

$$

ANZ835-935-AMZ111-154-330-350-352-354-370-450-454-472-010600-
...C-MAN AND BUOY OBSERVATIONS...

STATION/POSITION TIME  TEMP    WIND        PRES    WAVE   SWELL
                       AIR SEA DIR/SP/G            HT/PER HT/PER/DIR
                 (UTC) (F)     (DEG/KT/KT) (MB)    (FT/S) (FT/S/D)
BUOY 41004       0450   76 77  300/  8/ 10 1013.3F   4/ 8   3/ 8
BUOY 41008       0450   77 77  160/  6/ 10 1014.2R   2/ 8   2/100/ 8
FOLLY BEACH CMAN 0500   75     240/  5/  7 1014.2F
CAPERS NEARSHORE 0508   76 76  290/  8/ 12 1013.8F
FRIPP NEARSHORE  0508   77 77  250/  6/  8 1013.4F


STATION/POSITION TIME  TEMP    WIND        PRES    WAVE   SWELL
                       AIR SEA DIR/SP/G            HT/PER HT/PER/DIR
                 (UTC) (F)     (DEG/KT/KT) (MB)    (FT/S) (FT/S/D)
5E ST. MARYS GA  0501      80                N/A     2/ 8
FRYING PAN BUOY  0500   77 80  110/  8/ 16 1011.8F
BUOY 41025       0450   79 80  170/ 14/ 17 1014.1F   4/ 8   3/120/ 8
CAPE LOOKOUT NC  0500   75      90/  4/  5 1013.6F
BUOY 41002       0450   76 77  160/ 14/ 16 1015.6S   5/ 8   3/100/ 8
BUOY 41010       0420   80 80  170/ 10/ 12 1014.9F
ST AUGUSTINE FL  0500   76 80  200/  2/  3 1015.1S


$$




USA.gov is the U.S. government's official web portal to all federal, state and local government web resources and services.